Regional Weather Roundup
Issued by NWS Portland, ME

Current Version | Previous Version | Text Only | Print | Product List | Glossary On
Versions: 1 2 3 4 5 6 7 8 9 10 11 12 13 14 15 16 17 18 19 20 21 22 23 24 25 26 27 28 29 30 31 32 33 34 35 36 37 38 39 40 41 42 43 44 45 46 47 48 49 50
000
ASUS41 KGYX 170510
RWRGYX
WEATHER ROUNDUP FOR MAINE AND NEW HAMPSHIRE
NATIONAL WEATHER SERVICE GRAY ME
100 AM EDT WED OCT 17 2018

MEZ002-005-006-010-012-015-018-020-021-024-026-027-029-170600-
MAINE

CITY           SKY/WX    TMP DP  RH WIND       PRES   REMARKS
PORTLAND       NOT AVBL
WISCASSET      NOT AVBL
FRYEBURG       NOT AVBL
AUGUSTA        NOT AVBL
BANGOR         NOT AVBL
GREENVILLE       N/A     35  27  72 VRB5      29.84F
MILLINOCKET    NOT AVBL
HOULTON        NOT AVBL
PRESQUE ISLE   NOT AVBL
FRENCHVILLE    NOT AVBL
CARIBOU        NOT AVBL
$$

NHZ002-005-008-009-011-012-014-170600-
NEW HAMPSHIRE

CITY           SKY/WX    TMP DP  RH WIND       PRES   REMARKS
ROCHESTER      NOT AVBL
MANCHESTER     NOT AVBL
CONCORD        NOT AVBL
BERLIN         NOT AVBL
WHITEFIELD     NOT AVBL
JAFFREY        NOT AVBL
LEBANON        NOT AVBL
MT WASHINGTON  FOG       19  18  93 W44         N/A  VSB 0   WCI  -2
$$

VTZ005-007-008-170600-
VERMONT

CITY           SKY/WX    TMP DP  RH WIND       PRES   REMARKS
ST JOHNSBURY     N/A     33  32  96 MISG      29.90F
$$

MAZ007-012-024-CTZ003-RIZ002-NYZ038-NYZ072-170600-
SOUTHERN NEW ENGLAND AND NY

CITY           SKY/WX    TMP DP  RH WIND       PRES   REMARKS
$$

ANZ081-ANZ082-ANZ150-NHZ014-MEZ023>029-170600-
COASTAL MARINE OBSERVATIONS

STATION/POSITION TIME  TEMP    WIND        PRES    WAVE
                       AIR SEA DIR/SP/G            HT/PER
                 (UTC) (F)     (DEG/KT/KT) (MB)    (FT/S)
MOUNT DESERT ROC 0500   48     260/  5/  6 1014.7F
MATINICUS ROCK   0400   47     270/  2/  2 1014.4F
ISLE OF SHOALS   0400   50     250/ 16/ 16 1015.0S
JEFFREYS LEDGE   0406      57                N/A     3/ 4
$$

.............KEY..............
   WCI - WIND CHILL
   TC  - TEMPERATURE IN CELSIUS
   VSB - VISIBILITY IN MILES
   HX  - HEAT INDEX
   FAIR- INDICATES FEW OR NO CLOUDS BELOW 12,000 FT, WITH NO
         SIGNIFICANT WEATHER AND/OR OBSTRUCTIONS TO VISIBILITY.






USA.gov is the U.S. government's official web portal to all federal, state and local government web resources and services.